Location: Unspecified
(0.0000°N, 0.0000°E)
Time: 12:26:58
(UTC+02:00)

Iridium 12 - Visible Passes

Search period start: 23 April 2014 00:00
Search period end: 03 May 2014 00:00
Orbit: 776 x 779 km, 86.4° (Epoch: 22 April)

Date Brightness Start Highest point End Pass type
(mag) Time Alt. Az. Time Alt. Az. Time Alt. Az.
23 Apr 5.5 07:22:29 10° N 07:27:39 73° W 07:32:51 10° S visible
24 Apr 6.5 06:49:12 10° NNE 06:54:12 50° E 06:59:13 10° SSE visible
25 Apr 7.9 06:16:46 10° NE 06:20:45 22° E 06:24:44 10° SE visible
26 Apr 5.8 07:22:47 10° NNW 07:27:42 44° W 07:32:39 10° SSW visible
27 Apr 5.6 06:49:03 10° N 06:54:15 82° E 06:59:28 10° S visible
28 Apr 7.0 06:16:04 10° NNE 06:20:47 36° E 06:25:32 10° SSE visible
29 Apr 8.2 05:44:10 10° NE 05:47:20 16° E 05:50:30 10° SE visible
29 Apr 6.4 07:23:24 10° NNW 07:27:45 27° W 07:32:08 10° SSW visible
30 Apr 5.5 06:49:10 10° N 06:54:17 62° W 06:59:26 10° S visible
01 May 6.0 06:15:44 10° NNE 06:20:50 59° E 06:25:57 10° S visible
02 May 7.5 05:43:05 10° NE 05:47:22 26° E 05:51:40 10° SSE visible
02 May 6.9 07:24:30 10° NW 07:27:48 17° W 07:31:06 10° SW visible
